Time,TemperatureF,DewpointF,PressureIn,WindDirection,WindDirectionDegrees,WindSpeedMPH,WindSpeedGustMPH,Humidity,HourlyPrecipIn,Conditions,Clouds,dailyrainin,SoftwareType,DateUTC
2013-02-02 00:03:00,18.0,8.0,30.24,North,0,0.0,9.0,64,0.00,,,0.00,,2013-02-02 05:03:00,
2013-02-02 00:12:00,18.0,8.0,30.24,North,0,0.0,9.0,64,0.00,,,0.00,,2013-02-02 05:12:00,
2013-02-02 00:22:00,18.0,8.0,30.25,North,0,0.0,4.0,65,0.00,,,0.00,,2013-02-02 05:22:00,
2013-02-02 00:33:00,18.0,8.0,30.24,North,2,2.0,11.0,65,0.00,,,0.00,,2013-02-02 05:33:00,
2013-02-02 00:41:00,18.0,8.0,30.24,North,2,2.0,11.0,65,0.00,,,0.00,,2013-02-02 05:41:00,
2013-02-02 00:52:00,18.0,8.0,30.24,NNE,19,2.0,8.0,65,0.00,,,0.00,,2013-02-02 05:52:00,
2013-02-02 01:02:00,18.0,8.0,30.24,North,10,1.0,7.0,65,0.00,,,0.00,,2013-02-02 06:02:00,
2013-02-02 01:12:00,18.0,8.0,30.24,North,10,1.0,7.0,65,0.00,,,0.00,,2013-02-02 06:12:00,
2013-02-02 01:22:00,17.0,7.0,30.24,North,353,1.0,6.0,65,0.00,,,0.00,,2013-02-02 06:22:00,
2013-02-02 01:32:00,17.0,7.0,30.25,North,0,0.0,4.0,65,0.00,,,0.00,,2013-02-02 06:32:00,
2013-02-02 01:42:00,17.0,7.0,30.25,North,0,0.0,4.0,65,0.00,,,0.00,,2013-02-02 06:42:00,
2013-02-02 01:52:00,17.0,7.0,30.25,NNW,340,1.0,9.0,65,0.00,,,0.00,,2013-02-02 06:52:00,
2013-02-02 02:02:00,17.0,7.0,30.27,North,0,0.0,6.0,65,0.00,,,0.00,,2013-02-02 07:02:00,
2013-02-02 02:12:00,17.0,8.0,30.27,North,0,0.0,11.0,66,0.00,,,0.00,,2013-02-02 07:12:00,
2013-02-02 02:21:00,17.0,8.0,30.27,North,0,0.0,11.0,66,0.00,,,0.00,,2013-02-02 07:21:00,
2013-02-02 02:32:00,17.0,8.0,30.27,North,0,0.0,4.0,66,0.00,,,0.00,,2013-02-02 07:32:00,
2013-02-02 02:42:00,17.0,8.0,30.27,North,0,0.0,4.0,66,0.00,,,0.00,,2013-02-02 07:42:00,
2013-02-02 02:52:00,16.0,7.0,30.27,NNW,342,1.0,9.0,66,0.00,,,0.00,,2013-02-02 07:52:00,
2013-02-02 03:01:00,16.0,7.0,30.27,North,0,0.0,5.0,66,0.00,,,0.00,,2013-02-02 08:01:00,
2013-02-02 03:11:00,16.0,7.0,30.27,North,0,0.0,5.0,66,0.00,,,0.00,,2013-02-02 08:11:00,
2013-02-02 03:21:00,16.0,7.0,30.26,North,0,0.0,10.0,66,0.00,,,0.00,,2013-02-02 08:21:00,
2013-02-02 03:31:00,16.0,7.0,30.26,NNW,335,1.0,6.0,66,0.00,,,0.00,,2013-02-02 08:31:00,
2013-02-02 03:41:00,16.0,7.0,30.26,NNW,335,1.0,6.0,66,0.00,,,0.00,,2013-02-02 08:41:00,
2013-02-02 03:53:00,16.0,7.0,30.24,North,0,0.0,7.0,66,0.00,,,0.00,,2013-02-02 08:53:00,
2013-02-02 04:01:00,16.0,7.0,30.24,North,0,0.0,9.0,67,0.00,,,0.00,,2013-02-02 09:01:00,
2013-02-02 04:11:00,16.0,7.0,30.24,North,0,0.0,9.0,67,0.00,,,0.00,,2013-02-02 09:11:00,
2013-02-02 04:22:00,16.0,7.0,30.24,North,0,0.0,1.0,67,0.00,,,0.00,,2013-02-02 09:22:00,
2013-02-02 04:31:00,15.0,6.0,30.24,North,0,0.0,4.0,67,0.00,,,0.00,,2013-02-02 09:31:00,
2013-02-02 04:42:00,15.0,6.0,30.24,North,0,0.0,4.0,67,0.00,,,0.00,,2013-02-02 09:42:00,
2013-02-02 04:52:00,15.0,6.0,30.24,North,0,0.0,5.0,68,0.00,,,0.00,,2013-02-02 09:52:00,
2013-02-02 05:02:00,15.0,6.0,30.24,North,0,0.0,4.0,68,0.00,,,0.00,,2013-02-02 10:02:00,
2013-02-02 05:11:00,15.0,7.0,30.24,North,0,0.0,7.0,69,0.00,,,0.00,,2013-02-02 10:11:00,
2013-02-02 05:21:00,15.0,7.0,30.24,North,0,0.0,7.0,69,0.00,,,0.00,,2013-02-02 10:21:00,
2013-02-02 05:32:00,15.0,7.0,30.24,North,0,0.0,3.0,69,0.00,,,0.00,,2013-02-02 10:32:00,
2013-02-02 05:42:00,15.0,7.0,30.24,North,0,0.0,3.0,69,0.00,,,0.00,,2013-02-02 10:42:00,
2013-02-02 05:52:00,15.0,7.0,30.24,North,356,1.0,5.0,69,0.00,,,0.00,,2013-02-02 10:52:00,
2013-02-02 06:01:00,15.0,7.0,30.24,North,0,0.0,1.0,69,0.00,,,0.00,,2013-02-02 11:01:00,
2013-02-02 06:11:00,15.0,7.0,30.24,North,0,0.0,7.0,70,0.00,,,0.00,,2013-02-02 11:11:00,
2013-02-02 06:22:00,15.0,7.0,30.24,North,0,0.0,7.0,70,0.00,,,0.00,,2013-02-02 11:22:00,
2013-02-02 06:32:00,15.0,7.0,30.24,North,0,0.0,1.0,70,0.00,,,0.00,,2013-02-02 11:32:00,
2013-02-02 06:42:00,15.0,7.0,30.24,North,0,0.0,1.0,70,0.00,,,0.00,,2013-02-02 11:42:00,
2013-02-02 06:52:00,15.0,7.0,30.24,North,0,0.0,4.0,70,0.00,,,0.00,,2013-02-02 11:52:00,
2013-02-02 07:02:00,15.0,7.0,30.24,North,0,0.0,1.0,70,0.00,,,0.00,,2013-02-02 12:02:00,
2013-02-02 07:11:00,15.0,7.0,30.24,North,0,0.0,1.0,70,0.00,,,0.00,,2013-02-02 12:11:00,
2013-02-02 07:22:00,14.0,6.0,30.24,North,0,0.0,0.0,71,0.00,,,0.00,,2013-02-02 12:22:00,
2013-02-02 07:32:00,14.0,6.0,30.24,North,0,0.0,1.0,71,0.00,,,0.00,,2013-02-02 12:32:00,
2013-02-02 07:42:00,14.0,6.0,30.24,North,0,0.0,1.0,71,0.00,,,0.00,,2013-02-02 12:42:00,
2013-02-02 07:52:00,14.0,7.0,30.25,North,0,0.0,1.0,72,0.00,,,0.00,,2013-02-02 12:52:00,
2013-02-02 08:03:00,14.0,7.0,30.25,North,0,0.0,4.0,72,0.00,,,0.00,,2013-02-02 13:03:00,
2013-02-02 08:11:00,14.0,7.0,30.25,North,0,0.0,4.0,72,0.00,,,0.00,,2013-02-02 13:11:00,
2013-02-02 08:22:00,15.0,8.0,30.25,North,0,0.0,3.0,73,0.00,,,0.00,,2013-02-02 13:22:00,
2013-02-02 08:32:00,15.0,8.0,30.25,North,0,0.0,4.0,73,0.00,,,0.00,,2013-02-02 13:32:00,
2013-02-02 08:42:00,15.0,8.0,30.25,North,0,0.0,4.0,73,0.00,,,0.00,,2013-02-02 13:42:00,
2013-02-02 08:52:00,16.0,9.0,30.25,North,0,0.0,6.0,72,0.00,,,0.00,,2013-02-02 13:52:00,
2013-02-02 09:02:00,18.0,10.0,30.25,North,0,0.0,6.0,70,0.00,,,0.00,,2013-02-02 14:02:00,
2013-02-02 09:11:00,18.0,10.0,30.25,North,0,0.0,6.0,70,0.00,,,0.00,,2013-02-02 14:11:00,
2013-02-02 09:22:00,19.0,10.0,30.24,NNW,331,1.0,9.0,67,0.00,,,0.00,,2013-02-02 14:22:00,
2013-02-02 09:32:00,20.0,10.0,30.23,NW,324,1.0,5.0,64,0.00,,,0.00,,2013-02-02 14:32:00,
2013-02-02 09:42:00,20.0,10.0,30.23,NW,324,1.0,5.0,64,0.00,,,0.00,,2013-02-02 14:42:00,
2013-02-02 09:52:00,20.0,9.0,30.23,North,0,0.0,6.0,63,0.00,,,0.00,,2013-02-02 14:52:00,
2013-02-02 10:03:00,21.0,10.0,30.23,North,0,0.0,7.0,62,0.00,,,0.00,,2013-02-02 15:03:00,
2013-02-02 10:12:00,21.0,10.0,30.23,North,0,0.0,7.0,62,0.00,,,0.00,,2013-02-02 15:12:00,
2013-02-02 10:22:00,22.0,10.0,30.23,NW,317,1.0,11.0,60,0.00,,,0.00,,2013-02-02 15:22:00,
2013-02-02 10:32:00,22.0,10.0,30.22,North,0,0.0,6.0,59,0.00,,,0.00,,2013-02-02 15:32:00,
2013-02-02 10:42:00,22.0,10.0,30.22,North,0,0.0,6.0,59,0.00,,,0.00,,2013-02-02 15:42:00,
2013-02-02 10:52:00,22.0,10.0,30.22,NW,323,2.0,6.0,58,0.00,,,0.00,,2013-02-02 15:52:00,
2013-02-02 11:03:00,22.0,10.0,30.21,NW,314,1.0,11.0,59,0.00,,,0.00,,2013-02-02 16:03:00,
2013-02-02 11:12:00,22.0,10.0,30.21,NW,314,1.0,11.0,59,0.00,,,0.00,,2013-02-02 16:12:00,
2013-02-02 11:22:00,23.0,11.0,30.22,North,0,0.0,14.0,60,0.00,,,0.00,,2013-02-02 16:22:00,
2013-02-02 11:32:00,23.0,10.0,30.21,WNW,295,1.0,5.0,58,0.00,,,0.00,,2013-02-02 16:32:00,
2013-02-02 11:42:00,23.0,10.0,30.21,WNW,295,1.0,5.0,58,0.00,,,0.00,,2013-02-02 16:42:00,
2013-02-02 11:52:00,23.0,10.0,30.20,NW,317,1.0,6.0,58,0.00,,,0.00,,2013-02-02 16:52:00,
2013-02-02 12:02:00,23.0,10.0,30.19,WNW,299,1.0,10.0,58,0.00,,,0.00,,2013-02-02 17:02:00,
2013-02-02 12:11:00,23.0,10.0,30.19,WNW,299,1.0,10.0,58,0.00,,,0.00,,2013-02-02 17:11:00,
2013-02-02 12:22:00,24.0,11.0,30.18,NNW,330,1.0,10.0,57,0.00,,,0.00,,2013-02-02 17:22:00,
2013-02-02 12:32:00,24.0,11.0,30.17,WNW,295,1.0,13.0,56,0.00,,,0.00,,2013-02-02 17:32:00,
2013-02-02 12:42:00,24.0,11.0,30.17,WNW,295,1.0,13.0,56,0.00,,,0.00,,2013-02-02 17:42:00,
2013-02-02 12:52:00,24.0,11.0,30.15,NNW,342,1.0,13.0,57,0.00,,,0.00,,2013-02-02 17:52:00,
2013-02-02 13:02:00,25.0,12.0,30.15,NNW,328,1.0,14.0,56,0.00,,,0.00,,2013-02-02 18:02:00,
2013-02-02 13:12:00,25.0,12.0,30.15,NNW,328,1.0,14.0,56,0.00,,,0.00,,2013-02-02 18:12:00,
2013-02-02 13:22:00,25.0,12.0,30.14,North,0,0.0,11.0,56,0.00,,,0.00,,2013-02-02 18:22:00,
2013-02-02 13:32:00,25.0,12.0,30.13,WNW,296,1.0,14.0,58,0.00,,,0.00,,2013-02-02 18:32:00,
2013-02-02 13:42:00,25.0,12.0,30.13,WNW,296,1.0,14.0,58,0.00,,,0.00,,2013-02-02 18:42:00,
2013-02-02 13:52:00,25.0,14.0,30.12,North,0,0.0,11.0,62,0.00,,,0.00,,2013-02-02 18:52:00,
2013-02-02 14:02:00,25.0,13.0,30.12,NW,311,2.0,9.0,60,0.00,,,0.00,,2013-02-02 19:02:00,
2013-02-02 14:12:00,25.0,13.0,30.11,NW,311,1.0,6.0,59,0.00,,,0.00,,2013-02-02 19:12:00,
2013-02-02 14:21:00,25.0,13.0,30.11,NW,311,1.0,6.0,59,0.00,,,0.00,,2013-02-02 19:21:00,
2013-02-02 14:32:00,24.0,12.0,30.10,West,273,1.0,11.0,59,0.00,,,0.00,,2013-02-02 19:32:00,
2013-02-02 14:42:00,24.0,12.0,30.10,West,273,1.0,11.0,59,0.00,,,0.00,,2013-02-02 19:42:00,
2013-02-02 14:52:00,25.0,13.0,30.10,West,277,2.0,7.0,60,0.00,,,0.00,,2013-02-02 19:52:00,
2013-02-02 15:01:00,25.0,13.0,30.09,North,0,0.0,6.0,61,0.00,,,0.00,,2013-02-02 20:01:00,
2013-02-02 15:11:00,25.0,13.0,30.09,North,0,0.0,6.0,61,0.00,,,0.00,,2013-02-02 20:11:00,
2013-02-02 15:22:00,25.0,14.0,30.08,NW,308,2.0,9.0,63,0.00,,,0.00,,2013-02-02 20:22:00,
2013-02-02 15:32:00,25.0,13.0,30.07,North,0,0.0,6.0,61,0.00,,,0.00,,2013-02-02 20:32:00,
2013-02-02 15:42:00,25.0,13.0,30.07,North,0,0.0,6.0,61,0.00,,,0.00,,2013-02-02 20:42:00,
2013-02-02 15:52:00,25.0,13.0,30.07,North,0,0.0,6.0,61,0.00,,,0.00,,2013-02-02 20:52:00,
2013-02-02 16:02:00,25.0,15.0,30.07,West,276,2.0,8.0,64,0.00,,,0.00,,2013-02-02 21:02:00,
2013-02-02 16:11:00,25.0,15.0,30.07,West,276,2.0,8.0,64,0.00,,,0.00,,2013-02-02 21:11:00,
2013-02-02 16:21:00,25.0,15.0,30.06,West,281,3.0,9.0,64,0.00,,,0.00,,2013-02-02 21:21:00,
2013-02-02 16:32:00,25.0,16.0,30.06,WNW,289,1.0,10.0,67,0.00,,,0.00,,2013-02-02 21:32:00,
2013-02-02 16:42:00,25.0,16.0,30.06,WNW,289,1.0,10.0,67,0.00,,,0.00,,2013-02-02 21:42:00,
2013-02-02 16:52:00,24.0,16.0,30.06,WNW,294,2.0,11.0,72,0.00,,,0.00,,2013-02-02 21:52:00,
2013-02-02 17:02:00,23.0,17.0,30.06,North,0,0.0,4.0,76,0.00,,,0.00,,2013-02-02 22:02:00,
2013-02-02 17:12:00,23.0,17.0,30.06,North,0,0.0,4.0,76,0.00,,,0.00,,2013-02-02 22:12:00,
2013-02-02 17:21:00,23.0,17.0,30.05,North,0,0.0,4.0,79,0.00,,,0.00,,2013-02-02 22:21:00,
2013-02-02 17:32:00,23.0,18.0,30.03,North,0,0.0,6.0,80,0.00,,,0.00,,2013-02-02 22:32:00,
2013-02-02 17:42:00,23.0,18.0,30.03,North,0,0.0,6.0,80,0.00,,,0.00,,2013-02-02 22:42:00,
2013-02-02 17:52:00,23.0,18.0,30.03,North,0,0.0,3.0,81,0.00,,,0.00,,2013-02-02 22:52:00,
2013-02-02 18:02:00,22.0,17.0,30.03,North,0,0.0,4.0,81,0.00,,,0.00,,2013-02-02 23:02:00,
2013-02-02 18:11:00,22.0,17.0,30.03,North,0,0.0,4.0,81,0.00,,,0.00,,2013-02-02 23:11:00,
2013-02-02 18:22:00,22.0,17.0,30.03,North,0,0.0,2.0,82,0.00,,,0.00,,2013-02-02 23:22:00,
2013-02-02 18:32:00,23.0,19.0,30.03,North,0,0.0,4.0,83,0.00,,,0.00,,2013-02-02 23:32:00,
2013-02-02 18:42:00,23.0,19.0,30.03,North,0,0.0,4.0,83,0.00,,,0.00,,2013-02-02 23:42:00,
2013-02-02 18:52:00,23.0,19.0,30.03,North,0,0.0,0.0,83,0.00,,,0.00,,2013-02-02 23:52:00,
2013-02-02 19:02:00,23.0,19.0,30.03,North,0,0.0,6.0,84,0.00,,,0.00,,2013-02-03 00:02:00,
2013-02-02 19:11:00,23.0,19.0,30.03,North,0,0.0,6.0,84,0.00,,,0.00,,2013-02-03 00:11:00,
2013-02-02 19:22:00,23.0,19.0,30.03,North,0,0.0,2.0,85,0.00,,,0.00,,2013-02-03 00:22:00,
2013-02-02 19:32:00,23.0,19.0,30.03,North,0,0.0,2.0,86,0.00,,,0.00,,2013-02-03 00:32:00,
2013-02-02 19:42:00,23.0,19.0,30.03,North,0,0.0,2.0,86,0.00,,,0.00,,2013-02-03 00:42:00,
2013-02-02 19:52:00,23.0,20.0,30.03,North,0,0.0,2.0,87,0.00,,,0.00,,2013-02-03 00:52:00,
2013-02-02 20:02:00,23.0,20.0,30.03,North,0,0.0,0.0,87,0.00,,,0.00,,2013-02-03 01:02:00,
2013-02-02 20:11:00,23.0,20.0,30.03,North,0,0.0,0.0,88,0.00,,,0.00,,2013-02-03 01:11:00,
2013-02-02 20:21:00,23.0,20.0,30.03,North,0,0.0,0.0,88,0.00,,,0.00,,2013-02-03 01:21:00,
2013-02-02 20:32:00,23.0,20.0,30.02,North,0,0.0,1.0,88,0.00,,,0.00,,2013-02-03 01:32:00,
2013-02-02 20:42:00,23.0,20.0,30.02,North,0,0.0,1.0,88,0.00,,,0.00,,2013-02-03 01:42:00,
2013-02-02 20:52:00,23.0,20.0,30.02,North,0,0.0,0.0,89,0.00,,,0.00,,2013-02-03 01:52:00,
2013-02-02 21:01:00,23.0,20.0,30.02,North,0,0.0,0.0,89,0.00,,,0.00,,2013-02-03 02:01:00,
2013-02-02 21:11:00,23.0,20.0,30.02,North,0,0.0,0.0,89,0.00,,,0.00,,2013-02-03 02:11:00,
2013-02-02 21:21:00,23.0,21.0,30.02,North,0,0.0,0.0,90,0.00,,,0.00,,2013-02-03 02:21:00,
2013-02-02 21:32:00,23.0,21.0,30.01,North,0,0.0,0.0,90,0.00,,,0.00,,2013-02-03 02:32:00,
2013-02-02 21:42:00,23.0,21.0,30.01,North,0,0.0,0.0,90,0.00,,,0.00,,2013-02-03 02:42:00,
2013-02-02 21:52:00,23.0,21.0,30.01,North,0,0.0,0.0,90,0.00,,,0.00,,2013-02-03 02:52:00,
2013-02-02 22:02:00,23.0,21.0,30.00,North,0,0.0,0.0,90,0.00,,,0.00,,2013-02-03 03:02:00,
2013-02-02 22:11:00,23.0,21.0,30.00,North,0,0.0,0.0,90,0.00,,,0.00,,2013-02-03 03:11:00,
2013-02-02 22:21:00,23.0,21.0,30.00,North,0,0.0,0.0,90,0.00,,,0.00,,2013-02-03 03:21:00,
2013-02-02 22:32:00,23.0,21.0,29.99,North,0,0.0,0.0,91,0.00,,,0.00,,2013-02-03 03:32:00,
2013-02-02 22:42:00,23.0,21.0,29.99,North,0,0.0,0.0,91,0.00,,,0.00,,2013-02-03 03:42:00,
2013-02-02 22:52:00,23.0,21.0,29.98,North,0,0.0,0.0,91,0.00,,,0.00,,2013-02-03 03:52:00,
2013-02-02 23:01:00,23.0,21.0,29.98,North,0,0.0,0.0,91,0.00,,,0.00,,2013-02-03 04:01:00,
2013-02-02 23:11:00,23.0,21.0,29.97,North,0,0.0,0.0,91,0.00,,,0.00,,2013-02-03 04:11:00,
2013-02-02 23:21:00,23.0,21.0,29.97,North,0,0.0,0.0,91,0.00,,,0.00,,2013-02-03 04:21:00,
2013-02-02 23:32:00,22.0,20.0,29.97,North,0,0.0,0.0,91,0.00,,,0.00,,2013-02-03 04:32:00,
2013-02-02 23:42:00,22.0,20.0,29.97,North,0,0.0,0.0,91,0.00,,,0.00,,2013-02-03 04:42:00,
2013-02-02 23:52:00,22.0,20.0,29.97,North,0,0.0,0.0,91,0.00,,,0.00,,2013-02-03 04:52:00,